Location: Heppenheim
(49.6410°N, 8.6370°E)
Time: 08:35:25
(UTC+01:00)

ISS - Visible Passes

Search period start: 08 December 2025 00:00
Search period end: 18 December 2025 00:00
Orbit: 416 x 421 km, 51.6° (Epoch: 07 December)

Date Brightness Start Highest point End Pass type
(mag) Time Alt. Az. Time Alt. Az. Time Alt. Az.
11 Dec -0.3 07:14:49 10° SSE 07:16:24 13° SE 07:17:57 10° ESE visible
13 Dec -1.4 07:14:02 10° SSW 07:16:56 27° SE 07:19:51 10° E visible
14 Dec -0.9 06:26:43 10° S 06:29:09 19° SE 06:31:34 10° E visible
15 Dec -0.7 05:39:55 10° SSE 05:41:22 12° SE 05:42:51 10° ESE visible
15 Dec -3.0 07:14:16 10° SW 07:17:35 55° SSE 07:20:54 10° ENE visible
16 Dec -2.4 06:26:49 12° SW 06:29:38 38° SSE 06:32:49 10° E visible
17 Dec -1.9 05:41:26 26° SSE 05:41:44 26° SE 05:44:37 10° E visible
17 Dec -3.8 07:14:53 10° WSW 07:18:16 86° NNW 07:21:40 10° ENE visible
